| time (UTC) | temp C | wind direction | speed KPH | gust KPH | rain 1hr cm | rain 24hr cm | rain mn cm | humidity % | barometer mb |
| 20260509032239 | 6 | 285 | 0.0 | 0.0 | 0.00 | 0.00 | 0.00 | 73 | 1008.8 |
| 20260509031737 | 6 | 286 | 0.0 | 0.0 | 0.00 | 0.00 | 0.00 | 70 | 1009.0 |
| 20260509031234 | 6 | 286 | 0.0 | 0.0 | 0.00 | 0.00 | 0.00 | 68 | 1008.8 |
| 20260509030732 | 6 | 286 | 0.0 | 0.0 | 0.00 | 0.00 | 0.00 | 71 | 1008.9 |
| 20260509030229 | 6 | 285 | 0.0 | 0.0 | 0.00 | 0.00 | 0.00 | 71 | 1008.9 |
| 20260509025726 | 6 | 286 | 0.0 | 0.0 | 0.00 | 0.00 | 0.00 | 69 | 1009.1 |
| 20260509025221 | 6 | 286 | 0.0 | 0.0 | 0.00 | 0.00 | 0.00 | 66 | 1009.2 |
| 20260509024717 | 7 | 286 | 0.0 | 0.0 | 0.00 | 0.00 | 0.00 | 65 | 1009.0 |
| 20260509024213 | 7 | 286 | 0.0 | 0.0 | 0.00 | 0.00 | 0.00 | 63 | 1009.0 |
| 20260509023711 | 7 | 286 | 0.0 | 0.0 | 0.00 | 0.00 | 0.00 | 64 | 1009.0 |
| 20260509023208 | 7 | 285 | 0.0 | 0.0 | 0.00 | 0.00 | 0.00 | 64 | 1009.1 |
| 20260509022703 | 7 | 285 | 0.0 | 0.0 | 0.00 | 0.00 | 0.00 | 63 | 1009.0 |
| 20260509022202 | 7 | 286 | 0.0 | 0.0 | 0.00 | 0.00 | 0.00 | 62 | 1009.3 |
| 20260509021658 | 8 | 286 | 0.0 | 0.0 | 0.00 | 0.00 | 0.00 | 58 | 1008.9 |
| 20260509021156 | 8 | 286 | 0.0 | 0.0 | 0.00 | 0.00 | 0.00 | 59 | 1009.1 |
| 20260509020654 | 8 | 286 | 0.0 | 0.0 | 0.00 | 0.00 | 0.00 | 57 | 1009.0 |
| 20260509020150 | 8 | 286 | 0.0 | 0.0 | 0.00 | 0.00 | 0.00 | 56 | 1009.2 |
| 20260509015649 | 8 | 286 | 0.0 | 0.0 | 0.00 | 0.00 | 0.00 | 53 | 1009.1 |
| 20260509015146 | 8 | 286 | 0.0 | 0.0 | 0.00 | 0.00 | 0.00 | 52 | 1009.2 |
| 20260509014643 | 9 | 286 | 0.0 | 0.0 | 0.00 | 0.00 | 0.00 | 52 | 1009.0 |
| 20260509014139 | 10 | 286 | 0.0 | 0.0 | 0.00 | 0.00 | 0.00 | 50 | 1009.0 |
| 20260509013636 | 10 | 286 | 0.0 | 0.0 | 0.00 | 0.00 | 0.00 | 48 | 1008.9 |
| 20260509013132 | 10 | 286 | 0.0 | 0.0 | 0.00 | 0.00 | 0.00 | 46 | 1008.8 |
| 20260509012628 | 11 | 286 | 0.0 | 0.0 | 0.00 | 0.00 | 0.00 | 46 | 1008.8 |
| 20260509012126 | 11 | 286 | 0.0 | 0.0 | 0.00 | 0.00 | 0.00 | 45 | 1008.7 |
| 20260509011624 | 12 | 286 | 0.0 | 0.0 | 0.00 | 0.00 | 0.00 | 45 | 1008.8 |
| 20260509011121 | 12 | 286 | 0.0 | 0.0 | 0.00 | 0.00 | 0.00 | 42 | 1008.7 |
| 20260509010618 | 13 | 286 | 0.0 | 0.0 | 0.00 | 0.00 | 0.00 | 38 | 1008.7 |
| 20260509010114 | 14 | 286 | 0.0 | 0.0 | 0.00 | 0.00 | 0.00 | 37 | 1008.6 |
| 20260509005612 | 14 | 301 | 1.6 | 3.2 | 0.00 | 0.00 | 0.00 | 34 | 1008.6 |
| 20260509005108 | 15 | 301 | 0.0 | 0.0 | 0.00 | 0.00 | 0.00 | 34 | 1008.4 |
| 20260509004604 | 15 | 300 | 0.0 | 3.2 | 0.00 | 0.00 | 0.00 | 33 | 1008.5 |
| 20260509004101 | 15 | 280 | 6.4 | 8.0 | 0.00 | 0.00 | 0.00 | 33 | 1008.6 |
| 20260509003600 | 14 | 300 | 3.2 | 4.8 | 0.00 | 0.00 | 0.00 | 34 | 1008.4 |
| 20260509003057 | 14 | 303 | 0.0 | 0.0 | 0.00 | 0.00 | 0.00 | 41 | 1008.3 |
| 20260509002554 | 15 | 303 | 0.0 | 0.0 | 0.00 | 0.00 | 0.00 | 40 | 1008.4 |
| 20260509002051 | 15 | 303 | 0.0 | 0.0 | 0.00 | 0.00 | 0.00 | 33 | 1008.2 |
| 20260509001549 | 16 | 306 | 1.6 | 3.2 | 0.00 | 0.00 | 0.00 | 32 | 1008.1 |
| 20260509001044 | 16 | 306 | 3.2 | 3.2 | 0.00 | 0.00 | 0.00 | 31 | 1008.1 |
| 20260509000543 | 17 | 285 | 4.8 | 8.0 | 0.00 | 0.00 | 0.00 | 30 | 1008.2 |
| 20260509000038 | 17 | 288 | 4.8 | 4.8 | 0.00 | 0.00 | 0.00 | 30 | 1008.0 |
| 20260508235537 | 17 | 288 | 0.0 | 0.0 | 0.00 | 0.00 | 0.00 | 28 | 1008.0 |
| 20260508235032 | 17 | 304 | 1.6 | 3.2 | 0.00 | 0.00 | 0.00 | 29 | 1008.0 |
| 20260508234530 | 17 | 288 | 3.2 | 3.2 | 0.00 | 0.00 | 0.00 | 29 | 1007.9 |
| 20260508234026 | 17 | 304 | 8.0 | 9.7 | 0.00 | 0.00 | 0.00 | 29 | 1008.1 |
| 20260508233521 | 17 | 304 | 1.6 | 3.2 | 0.00 | 0.00 | 0.00 | 30 | 1008.1 |
| 20260508233017 | 17 | 294 | 3.2 | 4.8 | 0.00 | 0.00 | 0.00 | 29 | 1008.0 |
| 20260508232514 | 17 | 303 | 4.8 | 4.8 | 0.00 | 0.00 | 0.00 | 29 | 1008.1 |
| 20260508232011 | 17 | 280 | 3.2 | 4.8 | 0.00 | 0.00 | 0.00 | 29 | 1007.9 |
| 20260508231509 | 17 | 283 | 8.0 | 14.5 | 0.00 | 0.00 | 0.00 | 29 | 1007.9 |
| 20260508231006 | 17 | 265 | 8.0 | 9.7 | 0.00 | 0.00 | 0.00 | 29 | 1008.2 |
| 20260508230503 | 17 | 299 | 8.0 | 11.3 | 0.00 | 0.00 | 0.00 | 28 | 1007.9 |
| 20260508225959 | 18 | 296 | 6.4 | 8.0 | 0.00 | 0.00 | 0.00 | 28 | 1008.1 |
| 20260508225456 | 18 | 301 | 3.2 | 4.8 | 0.00 | 0.00 | 0.00 | 28 | 1008.1 |
| 20260508224953 | 18 | 301 | 11.3 | 14.5 | 0.00 | 0.00 | 0.00 | 28 | 1008.2 |
| 20260508224451 | 18 | 281 | 4.8 | 8.0 | 0.00 | 0.00 | 0.00 | 30 | 1008.1 |
| 20260508223948 | 18 | 316 | 4.8 | 9.7 | 0.00 | 0.00 | 0.00 | 29 | 1008.3 |
| 20260508223446 | 18 | 307 | 6.4 | 9.7 | 0.00 | 0.00 | 0.00 | 30 | 1008.3 |
| 20260508222943 | 18 | 261 | 8.0 | 9.7 | 0.00 | 0.00 | 0.00 | 29 | 1008.2 |
| 20260508222440 | 17 | 304 | 0.0 | 3.2 | 0.00 | 0.00 | 0.00 | 30 | 1008.3 |
| 20260508221936 | 18 | 300 | 9.7 | 11.3 | 0.00 | 0.00 | 0.00 | 30 | 1008.4 |
| 20260508221433 | 18 | 283 | 6.4 | 9.7 | 0.00 | 0.00 | 0.00 | 32 | 1008.4 |
| 20260508220929 | 18 | 285 | 4.8 | 4.8 | 0.00 | 0.00 | 0.00 | 32 | 1008.6 |
| 20260508220426 | 18 | 242 | 3.2 | 4.8 | 0.00 | 0.00 | 0.00 | 30 | 1008.2 |
| 20260508215922 | 18 | 301 | 0.0 | 3.2 | 0.00 | 0.00 | 0.00 | 30 | 1008.5 |
| 20260508215419 | 18 | 261 | 8.0 | 9.7 | 0.00 | 0.00 | 0.00 | 32 | 1008.6 |
| 20260508214915 | 18 | 277 | 4.8 | 4.8 | 0.00 | 0.00 | 0.00 | 32 | 1008.5 |
| 20260508214413 | 18 | 309 | 3.2 | 4.8 | 0.00 | 0.00 | 0.00 | 32 | 1008.6 |
| 20260508213909 | 18 | 289 | 6.4 | 9.7 | 0.00 | 0.00 | 0.00 | 32 | 1008.5 |
| 20260508213407 | 17 | 285 | 9.7 | 11.3 | 0.00 | 0.00 | 0.00 | 30 | 1008.7 |
| 20260508212902 | 17 | 291 | 14.5 | 16.1 | 0.00 | 0.00 | 0.00 | 30 | 1008.7 |
| 20260508212359 | 18 | 356 | 4.8 | 8.0 | 0.00 | 0.00 | 0.00 | 31 | 1008.6 |
| 20260508211855 | 18 | 9 | 1.6 | 3.2 | 0.00 | 0.00 | 0.00 | 32 | 1008.8 |
| 20260508211350 | 18 | 17 | 6.4 | 8.0 | 0.00 | 0.00 | 0.00 | 30 | 1008.6 |
| 20260508210848 | 18 | 28 | 3.2 | 4.8 | 0.00 | 0.00 | 0.00 | 29 | 1008.9 |
| 20260508210344 | 17 | 288 | 6.4 | 8.0 | 0.00 | 0.00 | 0.00 | 31 | 1009.0 |
| 20260508205841 | 17 | 274 | 8.0 | 11.3 | 0.00 | 0.00 | 0.00 | 32 | 1009.0 |
| 20260508205338 | 17 | 287 | 1.6 | 4.8 | 0.00 | 0.00 | 0.00 | 32 | 1009.0 |
| 20260508204834 | 17 | 260 | 4.8 | 4.8 | 0.00 | 0.00 | 0.00 | 33 | 1009.0 |
| 20260508204331 | 17 | 312 | 14.5 | 19.3 | 0.00 | 0.00 | 0.00 | 30 | 1009.0 |
| 20260508203827 | 17 | 315 | 4.8 | 8.0 | 0.00 | 0.00 | 0.00 | 30 | 1009.3 |
| 20260508203323 | 17 | 273 | 8.0 | 11.3 | 0.00 | 0.00 | 0.00 | 32 | 1009.2 |
| 20260508202819 | 18 | 239 | 9.7 | 11.3 | 0.00 | 0.00 | 0.00 | 31 | 1009.3 |
| 20260508202317 | 18 | 294 | 1.6 | 8.0 | 0.00 | 0.00 | 0.00 | 31 | 1009.4 |
| 20260508201814 | 17 | 287 | 1.6 | 3.2 | 0.00 | 0.00 | 0.00 | 32 | 1009.4 |
| 20260508201311 | 17 | 311 | 3.2 | 3.2 | 0.00 | 0.00 | 0.00 | 31 | 1009.5 |
| 20260508200807 | 16 | 277 | 9.7 | 11.3 | 0.00 | 0.00 | 0.00 | 33 | 1009.5 |
| 20260508200303 | 16 | 284 | 9.7 | 11.3 | 0.00 | 0.00 | 0.00 | 31 | 1009.7 |
| 20260508195759 | 17 | 279 | 8.0 | 14.5 | 0.00 | 0.00 | 0.00 | 32 | 1010.0 |
| 20260508195256 | 17 | 209 | 6.4 | 9.7 | 0.00 | 0.00 | 0.00 | 33 | 1009.9 |
| 20260508194752 | 17 | 246 | 6.4 | 8.0 | 0.00 | 0.00 | 0.00 | 33 | 1010.2 |
| 20260508194250 | 16 | 254 | 9.7 | 11.3 | 0.00 | 0.00 | 0.00 | 34 | 1010.3 |
| 20260508193747 | 16 | 258 | 6.4 | 8.0 | 0.00 | 0.00 | 0.00 | 34 | 1010.2 |
| 20260508193243 | 16 | 277 | 1.6 | 3.2 | 0.00 | 0.00 | 0.00 | 34 | 1010.3 |
| 20260508192740 | 16 | 296 | 8.0 | 9.7 | 0.00 | 0.00 | 0.00 | 35 | 1010.4 |
| 20260508192237 | 16 | 292 | 6.4 | 8.0 | 0.00 | 0.00 | 0.00 | 34 | 1010.5 |
| 20260508191734 | 16 | 310 | 11.3 | 14.5 | 0.00 | 0.00 | 0.00 | 34 | 1010.2 |
| 20260508191231 | 16 | 282 | 4.8 | 8.0 | 0.00 | 0.00 | 0.00 | 34 | 1010.3 |
| 20260508190728 | 16 | 275 | 4.8 | 4.8 | 0.00 | 0.00 | 0.00 | 37 | 1010.7 |
| 20260508190224 | 15 | 296 | 4.8 | 8.0 | 0.00 | 0.00 | 0.00 | 40 | 1010.7 |
| 20260508185721 | 16 | 311 | 9.7 | 11.3 | 0.00 | 0.00 | 0.00 | 34 | 1010.8 |
| 20260508185219 | 16 | 273 | 11.3 | 14.5 | 0.00 | 0.00 | 0.00 | 33 | 1010.8 |
| 20260508184715 | 16 | 268 | 12.9 | 16.1 | 0.00 | 0.00 | 0.00 | 34 | 1010.7 |
| 20260508184213 | 16 | 273 | 4.8 | 8.0 | 0.00 | 0.00 | 0.00 | 35 | 1010.8 |
| 20260508183709 | 16 | 317 | 6.4 | 8.0 | 0.00 | 0.00 | 0.00 | 36 | 1011.1 |
| 20260508183206 | 16 | 316 | 4.8 | 8.0 | 0.00 | 0.00 | 0.00 | 34 | 1010.9 |
| 20260508182701 | 16 | 277 | 3.2 | 3.2 | 0.00 | 0.00 | 0.00 | 34 | 1011.0 |
| 20260508182158 | 16 | 257 | 3.2 | 4.8 | 0.00 | 0.00 | 0.00 | 35 | 1011.1 |
| 20260508181654 | 15 | 295 | 4.8 | 4.8 | 0.00 | 0.00 | 0.00 | 33 | 1011.1 |
| 20260508181151 | 15 | 350 | 6.4 | 9.7 | 0.00 | 0.00 | 0.00 | 33 | 1011.2 |
| 20260508180648 | 15 | 294 | 8.0 | 11.3 | 0.00 | 0.00 | 0.00 | 33 | 1011.2 |
| 20260508180145 | 15 | 275 | 6.4 | 8.0 | 0.00 | 0.00 | 0.00 | 33 | 1011.4 |
| 20260508175642 | 15 | 245 | 11.3 | 14.5 | 0.00 | 0.00 | 0.00 | 33 | 1011.3 |
| 20260508175138 | 15 | 287 | 6.4 | 8.0 | 0.00 | 0.00 | 0.00 | 32 | 1011.5 |
| 20260508174636 | 15 | 280 | 1.6 | 4.8 | 0.00 | 0.00 | 0.00 | 33 | 1011.8 |
| 20260508174132 | 15 | 295 | 8.0 | 11.3 | 0.00 | 0.00 | 0.00 | 34 | 1011.9 |
| 20260508173629 | 15 | 298 | 1.6 | 3.2 | 0.00 | 0.00 | 0.00 | 36 | 1012.0 |
| 20260508173126 | 15 | 178 | 6.4 | 9.7 | 0.00 | 0.00 | 0.00 | 34 | 1012.1 |
| 20260508172623 | 15 | 293 | 0.0 | 3.2 | 0.00 | 0.00 | 0.00 | 37 | 1011.9 |
| 20260508172119 | 15 | 299 | 3.2 | 4.8 | 0.00 | 0.00 | 0.00 | 32 | 1012.1 |
| 20260508171616 | 15 | 269 | 12.9 | 19.3 | 0.00 | 0.00 | 0.00 | 34 | 1012.1 |
| 20260508171113 | 15 | 264 | 6.4 | 8.0 | 0.00 | 0.00 | 0.00 | 33 | 1012.2 |
| 20260508170610 | 15 | 338 | 3.2 | 4.8 | 0.00 | 0.00 | 0.00 | 33 | 1012.2 |
| 20260508170107 | 15 | 271 | 3.2 | 4.8 | 0.00 | 0.00 | 0.00 | 31 | 1012.3 |
| 20260508165604 | 15 | 293 | 11.3 | 14.5 | 0.00 | 0.00 | 0.00 | 31 | 1012.5 |
| 20260508165101 | 15 | 358 | 1.6 | 3.2 | 0.00 | 0.00 | 0.00 | 32 | 1012.3 |
| 20260508164557 | 15 | 261 | 6.4 | 9.7 | 0.00 | 0.00 | 0.00 | 35 | 1012.4 |
| 20260508164054 | 15 | 275 | 6.4 | 8.0 | 0.00 | 0.00 | 0.00 | 31 | 1012.7 |
| 20260508163552 | 14 | 293 | 8.0 | 14.5 | 0.00 | 0.00 | 0.00 | 34 | 1012.7 |
| 20260508163048 | 15 | 257 | 9.7 | 11.3 | 0.00 | 0.00 | 0.00 | 32 | 1013.1 |
| 20260508162545 | 14 | 296 | 0.0 | 3.2 | 0.00 | 0.00 | 0.00 | 34 | 1012.7 |
| 20260508162042 | 14 | 272 | 8.0 | 11.3 | 0.00 | 0.00 | 0.00 | 32 | 1012.9 |
| 20260508161539 | 15 | 263 | 3.2 | 4.8 | 0.00 | 0.00 | 0.00 | 36 | 1012.8 |
| 20260508161036 | 14 | 321 | 4.8 | 8.0 | 0.00 | 0.00 | 0.00 | 33 | 1013.0 |
| 20260508160535 | 14 | 254 | 6.4 | 8.0 | 0.00 | 0.00 | 0.00 | 34 | 1013.1 |
| 20260508160031 | 13 | 289 | 8.0 | 11.3 | 0.00 | 0.00 | 0.00 | 34 | 1012.9 |
| 20260508155528 | 13 | 294 | 1.6 | 3.2 | 0.00 | 0.00 | 0.00 | 34 | 1013.1 |
| 20260508155025 | 13 | 338 | 3.2 | 4.8 | 0.00 | 0.00 | 0.00 | 35 | 1013.0 |
| 20260508154523 | 13 | 287 | 8.0 | 9.7 | 0.00 | 0.00 | 0.00 | 32 | 1013.0 |
| 20260508154019 | 14 | 242 | 8.0 | 9.7 | 0.00 | 0.00 | 0.00 | 36 | 1013.0 |
| 20260508153516 | 13 | 76 | 3.2 | 4.8 | 0.00 | 0.00 | 0.00 | 35 | 1012.9 |
| 20260508153012 | 13 | 269 | 6.4 | 9.7 | 0.00 | 0.00 | 0.00 | 35 | 1013.0 |
| 20260508152509 | 13 | 283 | 1.6 | 3.2 | 0.00 | 0.00 | 0.00 | 40 | 1013.0 |
| 20260508152005 | 12 | 298 | 3.2 | 8.0 | 0.00 | 0.00 | 0.00 | 36 | 1013.1 |
| 20260508151502 | 13 | 279 | 4.8 | 8.0 | 0.00 | 0.00 | 0.00 | 36 | 1013.2 |
| 20260508150958 | 13 | 263 | 8.0 | 11.3 | 0.00 | 0.00 | 0.00 | 36 | 1013.3 |
| 20260508150456 | 12 | 293 | 8.0 | 9.7 | 0.00 | 0.00 | 0.00 | 36 | 1013.5 |
| 20260508145951 | 12 | 282 | 4.8 | 9.7 | 0.00 | 0.00 | 0.00 | 35 | 1013.2 |
| 20260508145448 | 13 | 275 | 4.8 | 4.8 | 0.00 | 0.00 | 0.00 | 42 | 1013.3 |
| 20260508144944 | 12 | 260 | 0.0 | 3.2 | 0.00 | 0.00 | 0.00 | 41 | 1013.5 |
| 20260508144442 | 12 | 272 | 4.8 | 4.8 | 0.00 | 0.00 | 0.00 | 45 | 1013.2 |
| 20260508143940 | 12 | 297 | 6.4 | 8.0 | 0.00 | 0.00 | 0.00 | 40 | 1013.6 |
| 20260508143437 | 12 | 294 | 4.8 | 4.8 | 0.00 | 0.00 | 0.00 | 47 | 1013.4 |
| 20260508142933 | 12 | 288 | 9.7 | 11.3 | 0.00 | 0.00 | 0.00 | 42 | 1013.5 |
| 20260508142431 | 11 | 280 | 3.2 | 3.2 | 0.00 | 0.00 | 0.00 | 47 | 1013.5 |
| 20260508141927 | 12 | 302 | 1.6 | 3.2 | 0.00 | 0.00 | 0.00 | 46 | 1013.5 |
| 20260508141424 | 12 | 283 | 4.8 | 8.0 | 0.00 | 0.00 | 0.00 | 43 | 1013.7 |
| 20260508140921 | 12 | 291 | 0.0 | 0.0 | 0.00 | 0.00 | 0.00 | 47 | 1013.7 |
| 20260508140418 | 11 | 284 | 0.0 | 0.0 | 0.00 | 0.00 | 0.00 | 50 | 1013.8 |
| 20260508135914 | 11 | 290 | 4.8 | 4.8 | 0.00 | 0.00 | 0.00 | 53 | 1013.9 |
| 20260508135411 | 11 | 281 | 6.4 | 8.0 | 0.00 | 0.00 | 0.00 | 53 | 1013.8 |
| 20260508134907 | 11 | 280 | 3.2 | 4.8 | 0.00 | 0.00 | 0.00 | 53 | 1013.7 |
| 20260508134403 | 11 | 301 | 4.8 | 4.8 | 0.00 | 0.00 | 0.00 | 54 | 1014.0 |
| 20260508133900 | 10 | 280 | 4.8 | 4.8 | 0.00 | 0.00 | 0.00 | 55 | 1013.9 |
| 20260508133358 | 10 | 284 | 0.0 | 3.2 | 0.00 | 0.00 | 0.00 | 55 | 1013.7 |
| 20260508132854 | 10 | 282 | 1.6 | 3.2 | 0.00 | 0.00 | 0.00 | 57 | 1013.7 |
| 20260508132353 | 10 | 293 | 1.6 | 3.2 | 0.00 | 0.00 | 0.00 | 58 | 1013.8 |
| 20260508131849 | 10 | 270 | 0.0 | 3.2 | 0.00 | 0.00 | 0.00 | 56 | 1013.9 |
| 20260508131344 | 10 | 275 | 3.2 | 4.8 | 0.00 | 0.00 | 0.00 | 62 | 1014.0 |
| 20260508130841 | 10 | 282 | 4.8 | 8.0 | 0.00 | 0.00 | 0.00 | 62 | 1014.0 |
| 20260508130338 | 10 | 295 | 3.2 | 4.8 | 0.00 | 0.00 | 0.00 | 61 | 1013.7 |
| 20260508125834 | 10 | 274 | 4.8 | 4.8 | 0.00 | 0.00 | 0.00 | 62 | 1013.9 |
| 20260508125331 | 9 | 304 | 0.0 | 0.0 | 0.00 | 0.00 | 0.00 | 63 | 1013.8 |
| 20260508124829 | 8 | 276 | 6.4 | 8.0 | 0.00 | 0.00 | 0.00 | 66 | 1013.9 |
| 20260508124325 | 8 | 272 | 6.4 | 8.0 | 0.00 | 0.00 | 0.00 | 67 | 1013.9 |
| 20260508123824 | 8 | 277 | 4.8 | 8.0 | 0.00 | 0.00 | 0.00 | 70 | 1013.9 |
| 20260508123322 | 8 | 308 | 0.0 | 0.0 | 0.00 | 0.00 | 0.00 | 73 | 1014.0 |
| 20260508122818 | 8 | 290 | 0.0 | 3.2 | 0.00 | 0.00 | 0.00 | 75 | 1013.9 |
| 20260508122315 | 7 | 300 | 0.0 | 0.0 | 0.00 | 0.00 | 0.00 | 77 | 1013.6 |
| 20260508121812 | 7 | 301 | 0.0 | 0.0 | 0.00 | 0.00 | 0.00 | 79 | 1013.7 |
| 20260508121311 | 6 | 304 | 0.0 | 0.0 | 0.00 | 0.00 | 0.00 | 82 | 1013.6 |
| 20260508120808 | 6 | 299 | 0.0 | 0.0 | 0.00 | 0.00 | 0.00 | 88 | 1013.5 |
| 20260508120306 | 5 | 297 | 0.0 | 0.0 | 0.00 | 0.00 | 0.00 | 92 | 1013.3 |
| 20260508115803 | 5 | 284 | 0.0 | 0.0 | 0.00 | 0.00 | 0.00 | 97 | 1013.4 |
| 20260508115300 | 5 | 284 | 0.0 | 0.0 | 0.00 | 0.00 | 0.00 | 98 | 1013.5 |
| 20260508114756 | 5 | 284 | 0.0 | 0.0 | 0.00 | 0.00 | 0.00 | 99 | 1013.3 |
| 20260508114253 | 4 | 285 | 0.0 | 0.0 | 0.00 | 0.00 | 0.00 | 99 | 1013.3 |
| 20260508113749 | 4 | 285 | 0.0 | 0.0 | 0.00 | 0.00 | 0.00 | 99 | 1013.4 |
| 20260508113249 | 3 | 284 | 0.0 | 0.0 | 0.00 | 0.00 | 0.00 | 99 | 1013.0 |
| 20260508112744 | 2 | 285 | 0.0 | 0.0 | 0.00 | 0.00 | 0.00 | 99 | 1013.2 |
| 20260508112241 | 2 | 284 | 0.0 | 0.0 | 0.00 | 0.00 | 0.00 | 99 | 1013.1 |
| 20260508111738 | 2 | 285 | 0.0 | 0.0 | 0.00 | 0.00 | 0.00 | 99 | 1013.2 |
| 20260508111236 | 1 | 284 | 0.0 | 0.0 | 0.00 | 0.00 | 0.00 | 99 | 1013.0 |
| 20260508110733 | 1 | 284 | 0.0 | 0.0 | 0.00 | 0.00 | 0.00 | 99 | 1013.2 |
| 20260508110230 | 1 | 284 | 0.0 | 0.0 | 0.00 | 0.00 | 0.00 | 99 | 1013.0 |
| 20260508105724 | 1 | 284 | 0.0 | 0.0 | 0.00 | 0.00 | 0.00 | 99 | 1013.2 |
| 20260508105221 | 1 | 284 | 0.0 | 0.0 | 0.00 | 0.00 | 0.00 | 99 | 1012.9 |
| 20260508104718 | 1 | 284 | 0.0 | 0.0 | 0.00 | 0.00 | 0.00 | 99 | 1013.2 |
| 20260508104215 | 0 | 284 | 0.0 | 0.0 | 0.00 | 0.00 | 0.00 | 99 | 1013.2 |
| 20260508103713 | 0 | 284 | 0.0 | 0.0 | 0.00 | 0.00 | 0.00 | 99 | 1013.0 |
| 20260508103209 | 0 | 284 | 0.0 | 0.0 | 0.00 | 0.00 | 0.00 | 99 | 1013.0 |
| 20260508102706 | 0 | 284 | 0.0 | 0.0 | 0.00 | 0.00 | 0.00 | 99 | 1013.2 |
| 20260508102205 | 0 | 284 | 0.0 | 0.0 | 0.00 | 0.00 | 0.00 | 99 | 1013.2 |
| 20260508101701 | 0 | 284 | 0.0 | 0.0 | 0.00 | 0.00 | 0.00 | 99 | 1013.2 |
| 20260508101159 | 1 | 284 | 0.0 | 0.0 | 0.00 | 0.00 | 0.00 | 99 | 1013.1 |
| 20260508100656 | 1 | 284 | 0.0 | 0.0 | 0.00 | 0.00 | 0.00 | 99 | 1013.1 |
| 20260508100154 | 1 | 284 | 0.0 | 0.0 | 0.00 | 0.00 | 0.00 | 99 | 1013.1 |
| 20260508095650 | 1 | 284 | 0.0 | 0.0 | 0.00 | 0.00 | 0.00 | 99 | 1013.3 |
| 20260508095148 | 1 | 284 | 0.0 | 0.0 | 0.00 | 0.00 | 0.00 | 99 | 1013.2 |
| 20260508094644 | 1 | 284 | 0.0 | 0.0 | 0.00 | 0.00 | 0.00 | 99 | 1013.2 |
| 20260508094141 | 1 | 284 | 0.0 | 0.0 | 0.00 | 0.00 | 0.00 | 99 | 1013.2 |
| 20260508093639 | 1 | 284 | 0.0 | 0.0 | 0.00 | 0.00 | 0.00 | 99 | 1013.3 |
| 20260508093136 | 1 | 284 | 0.0 | 0.0 | 0.00 | 0.00 | 0.00 | 99 | 1013.1 |
| 20260508092633 | 1 | 284 | 0.0 | 0.0 | 0.00 | 0.00 | 0.00 | 99 | 1013.2 |
| 20260508092132 | 1 | 284 | 0.0 | 0.0 | 0.00 | 0.00 | 0.00 | 99 | 1013.3 |
| 20260508091628 | 1 | 284 | 0.0 | 0.0 | 0.00 | 0.00 | 0.00 | 99 | 1013.2 |
| 20260508091126 | 1 | 284 | 0.0 | 0.0 | 0.00 | 0.00 | 0.00 | 99 | 1013.2 |
| 20260508090623 | 1 | 284 | 0.0 | 0.0 | 0.00 | 0.00 | 0.00 | 98 | 1013.1 |
| 20260508090121 | 1 | 284 | 0.0 | 0.0 | 0.00 | 0.00 | 0.00 | 98 | 1013.3 |
| 20260508085616 | 1 | 284 | 0.0 | 0.0 | 0.00 | 0.00 | 0.00 | 97 | 1013.4 |
| 20260508085114 | 1 | 284 | 0.0 | 0.0 | 0.00 | 0.00 | 0.00 | 97 | 1013.3 |
| 20260508084610 | 2 | 284 | 0.0 | 0.0 | 0.00 | 0.00 | 0.00 | 97 | 1013.6 |
| 20260508084108 | 2 | 284 | 0.0 | 0.0 | 0.00 | 0.00 | 0.00 | 97 | 1013.5 |
| 20260508083605 | 2 | 284 | 0.0 | 0.0 | 0.00 | 0.00 | 0.00 | 97 | 1013.4 |
| 20260508083102 | 2 | 284 | 0.0 | 0.0 | 0.00 | 0.00 | 0.00 | 97 | 1013.6 |
| 20260508082557 | 2 | 284 | 0.0 | 0.0 | 0.00 | 0.00 | 0.00 | 96 | 1013.6 |
| 20260508082055 | 2 | 284 | 0.0 | 0.0 | 0.00 | 0.00 | 0.00 | 96 | 1013.5 |
| 20260508081552 | 2 | 284 | 0.0 | 0.0 | 0.00 | 0.00 | 0.00 | 96 | 1013.4 |
| 20260508081048 | 2 | 284 | 0.0 | 0.0 | 0.00 | 0.00 | 0.00 | 95 | 1013.4 |
| 20260508080546 | 2 | 284 | 0.0 | 0.0 | 0.00 | 0.00 | 0.00 | 95 | 1013.5 |
| 20260508080043 | 3 | 284 | 0.0 | 0.0 | 0.00 | 0.00 | 0.00 | 95 | 1013.5 |
| 20260508075540 | 3 | 284 | 0.0 | 0.0 | 0.00 | 0.00 | 0.00 | 95 | 1013.4 |
| 20260508075037 | 3 | 284 | 0.0 | 0.0 | 0.00 | 0.00 | 0.00 | 94 | 1013.4 |
| 20260508074535 | 3 | 284 | 0.0 | 0.0 | 0.00 | 0.00 | 0.00 | 94 | 1013.6 |
| 20260508074032 | 3 | 283 | 0.0 | 0.0 | 0.00 | 0.00 | 0.00 | 93 | 1013.4 |
| 20260508073529 | 3 | 283 | 0.0 | 0.0 | 0.00 | 0.00 | 0.00 | 93 | 1013.3 |
| 20260508073027 | 3 | 283 | 0.0 | 0.0 | 0.00 | 0.00 | 0.00 | 92 | 1013.2 |
| 20260508072522 | 3 | 283 | 0.0 | 0.0 | 0.00 | 0.00 | 0.00 | 92 | 1013.1 |
| 20260508072020 | 4 | 283 | 0.0 | 0.0 | 0.00 | 0.00 | 0.00 | 91 | 1013.3 |
| 20260508071517 | 4 | 283 | 0.0 | 0.0 | 0.00 | 0.00 | 0.00 | 90 | 1013.1 |
| 20260508071015 | 5 | 283 | 0.0 | 0.0 | 0.00 | 0.00 | 0.00 | 89 | 1013.2 |
| 20260508070512 | 5 | 283 | 0.0 | 0.0 | 0.00 | 0.00 | 0.00 | 89 | 1013.3 |
| 20260508070011 | 5 | 283 | 0.0 | 0.0 | 0.00 | 0.00 | 0.00 | 88 | 1013.3 |
| 20260508065508 | 5 | 282 | 0.0 | 0.0 | 0.00 | 0.00 | 0.00 | 87 | 1013.3 |
| 20260508065006 | 5 | 283 | 0.0 | 0.0 | 0.00 | 0.00 | 0.00 | 88 | 1013.2 |
| 20260508064503 | 5 | 283 | 0.0 | 0.0 | 0.00 | 0.00 | 0.00 | 89 | 1013.4 |
| 20260508064001 | 5 | 282 | 0.0 | 0.0 | 0.00 | 0.00 | 0.00 | 88 | 1013.4 |
| 20260508063458 | 5 | 283 | 0.0 | 0.0 | 0.00 | 0.00 | 0.00 | 86 | 1013.5 |
| 20260508062956 | 5 | 283 | 0.0 | 0.0 | 0.00 | 0.00 | 0.00 | 85 | 1013.6 |
| 20260508062453 | 5 | 283 | 0.0 | 0.0 | 0.00 | 0.00 | 0.00 | 86 | 1013.7 |
| 20260508061949 | 6 | 282 | 0.0 | 0.0 | 0.00 | 0.00 | 0.00 | 87 | 1013.5 |
| 20260508061448 | 6 | 282 | 0.0 | 0.0 | 0.00 | 0.00 | 0.00 | 84 | 1013.7 |
| 20260508060943 | 6 | 282 | 0.0 | 0.0 | 0.00 | 0.00 | 0.00 | 84 | 1013.9 |
| 20260508060441 | 6 | 282 | 0.0 | 0.0 | 0.00 | 0.00 | 0.00 | 85 | 1013.8 |
| 20260508055937 | 6 | 282 | 0.0 | 0.0 | 0.00 | 0.00 | 0.00 | 84 | 1014.0 |
| 20260508055434 | 5 | 283 | 0.0 | 0.0 | 0.00 | 0.00 | 0.00 | 84 | 1014.0 |
| 20260508054930 | 5 | 283 | 0.0 | 0.0 | 0.00 | 0.00 | 0.00 | 84 | 1013.8 |
| 20260508054428 | 6 | 283 | 0.0 | 0.0 | 0.00 | 0.00 | 0.00 | 84 | 1013.9 |
| 20260508053924 | 5 | 283 | 0.0 | 0.0 | 0.00 | 0.00 | 0.00 | 84 | 1013.8 |
| 20260508053421 | 6 | 282 | 0.0 | 3.2 | 0.00 | 0.00 | 0.00 | 85 | 1013.5 |
| 20260508052919 | 6 | 259 | 0.0 | 0.0 | 0.00 | 0.00 | 0.00 | 81 | 1014.0 |
| 20260508052417 | 6 | 259 | 0.0 | 0.0 | 0.00 | 0.00 | 0.00 | 81 | 1013.8 |
| 20260508051913 | 6 | 259 | 0.0 | 0.0 | 0.00 | 0.00 | 0.00 | 80 | 1013.9 |
| 20260508051409 | 6 | 259 | 0.0 | 0.0 | 0.00 | 0.00 | 0.00 | 80 | 1013.7 |
| 20260508050904 | 6 | 259 | 0.0 | 0.0 | 0.00 | 0.00 | 0.00 | 78 | 1013.7 |
| 20260508050402 | 6 | 259 | 0.0 | 0.0 | 0.00 | 0.00 | 0.00 | 78 | 1013.8 |
| 20260508045857 | 6 | 245 | 0.0 | 3.2 | 0.00 | 0.00 | 0.00 | 76 | 1013.8 |
| 20260508045355 | 6 | 310 | 0.0 | 0.0 | 0.00 | 0.00 | 0.00 | 75 | 1014.0 |
| 20260508044853 | 6 | 286 | 0.0 | 0.0 | 0.00 | 0.00 | 0.00 | 76 | 1014.1 |
| 20260508044349 | 6 | 284 | 0.0 | 0.0 | 0.00 | 0.00 | 0.00 | 77 | 1013.8 |
| 20260508043845 | 6 | 284 | 0.0 | 0.0 | 0.00 | 0.00 | 0.00 | 78 | 1013.8 |
| 20260508043343 | 6 | 276 | 3.2 | 3.2 | 0.00 | 0.00 | 0.00 | 77 | 1013.6 |
| 20260508042839 | 6 | 284 | 0.0 | 0.0 | 0.00 | 0.00 | 0.00 | 76 | 1013.7 |
| 20260508042337 | 6 | 284 | 0.0 | 0.0 | 0.00 | 0.00 | 0.00 | 75 | 1014.2 |
| 20260508041833 | 6 | 284 | 0.0 | 0.0 | 0.00 | 0.00 | 0.00 | 77 | 1013.9 |
| 20260508041330 | 6 | 284 | 0.0 | 0.0 | 0.00 | 0.00 | 0.00 | 77 | 1014.0 |
| 20260508040826 | 6 | 284 | 0.0 | 0.0 | 0.00 | 0.00 | 0.00 | 77 | 1013.9 |
| 20260508040324 | 6 | 283 | 0.0 | 0.0 | 0.00 | 0.00 | 0.00 | 79 | 1013.7 |
| 20260508035821 | 6 | 298 | 0.0 | 0.0 | 0.00 | 0.00 | 0.00 | 78 | 1014.2 |
| 20260508035318 | 6 | 299 | 0.0 | 0.0 | 0.00 | 0.00 | 0.00 | 71 | 1013.8 |
| 20260508034815 | 6 | 299 | 0.0 | 0.0 | 0.00 | 0.00 | 0.00 | 72 | 1013.9 |
| 20260508034312 | 6 | 299 | 0.0 | 0.0 | 0.00 | 0.00 | 0.00 | 73 | 1013.8 |
| 20260508033809 | 6 | 299 | 0.0 | 0.0 | 0.00 | 0.00 | 0.00 | 74 | 1013.7 |
| 20260508033307 | 6 | 298 | 0.0 | 0.0 | 0.00 | 0.00 | 0.00 | 75 | 1013.6 |
| 20260508032804 | 6 | 302 | 0.0 | 0.0 | 0.00 | 0.00 | 0.00 | 70 | 1013.6 |